Forside
METAR-TAF:

METAR-TAF

Lufthavne :

Munising, Michigan, USA

Breddekreds: 46-24N, længdekreds: 086-39W, højde: 187 m

Aktuelle vejr

Denne rapport blev lavet for 37 minutter siden, kl. 17:56 UTC
Vind 7 kt fra sydsydvest med vindstød på up til 14 kt
Temperatur 6°C
Fugtighed 52%
Tryk 1004 hPa

METAR: KP53 231756Z AUTO 20007G14KT 06/M03 A2964 RMK AO1 SLP043 T00561028 10056 21017 56015

Tid: 13:33 (18:33 UTC)


TAF: fraværende

Vejrobservationer og prognoser fra mere end 4000 lufthavne (METAR og TAF).

De gule og røde prikker repræsenterer de meteorologiske stationer.

Flyt musen over at se navnet på stationen.

Så klik over at se vejr observationer og prognoser.

At skifte det kort: Klik på de grønne knapper med et sort kors for at zoome ind; på den grønne knap med en bindestreg for at zoome ud; eller på de grønne pile for tilstødende kort.


METAR-TAF: